Location: Peebles
(55.6412°N, 3.1714°W)
Time: 15:46:03
(UTC+01:00)

IRAS Rocket - Pass Details

Date: 26 September 2021
Orbit: 847 x 877 km, 100.1° (Epoch: 17 October)

Event Time Altitude Azimuth Distance (km) Brightness Sun altitude
Rises 19:33:27 0° 20° (NNE) 3,489 7.3 -5.5°
Reaches altitude 10° 19:35:54 10° 24° (NNE) 2,545 6.5 -5.8°
Maximum altitude 19:41:30 60° 104° (ESE) 1,001 4.3 -6.6°
Drops below altitude 10° 19:47:01 10° 184° (S) 2,517 6.6 -7.4°
Sets 19:49:26 0° 188° (S) 3,447 7.4 -7.7°
